Location: Newark
(13.6797°N, 8.5297°E)
Time: 05:35:26
(UTC+00:00)

A-11 Canister half - Pass Details

Date: 26 January 2020
Orbit: 1517 x 1683 km, 47.2° (Epoch: 19 February)

Event Time Altitude Azimuth Distance (km) Brightness Sun altitude
Rises 21:48:53 0° 249° (WSW) 4,818 12.0 -63.3°
Reaches altitude 10° 21:52:30 10° 259° (WSW) 3,807 11.3 -64.1°
Enters shadow 21:52:48 11° 260° (W) 3,726 11.3 -64.2°
Maximum altitude 22:00:46 32° 318° (NW) 2,434 - -66.1°
Drops below altitude 10° 22:08:52 10° 19° (NNE) 3,703 - -67.9°
Sets 22:12:23 0° 29° (NNE) 4,671 - -68.8°
